Theta_e
318 317 318 319 319 320 321 322 319 320 319 315 317 319 320 323 324 324 327 329 333 337 338 337 337 338 337 337 337 339 338 337 337 335 336 337 337 336 335 334 333 332 333 332 331 333 333 331 330 329 331 333 332 329 326 326 329 329 329 332 333 333 333 333 331 331 331 329 330 330 331 331 332 332 328 323 323 326 330 330 325 320 318 325 329 326 329 332 332 332 333 334 333 334 334 334 333
318 318 319 319 319 320 322 321 317 317 316 315 318 320 322 325 326 327 330 332 336 338 338 338 338 338 338 337 337 338 338 338 338 338 338 337 336 336 335 333 333 332 332 332 331 332 333 331 330 329 330 331 331 329 326 326 329 330 330 329 331 332 330 329 327 325 324 325 325 326 327 326 325 323 320 323 330 332 332 331 325 318 318 325 327 326 331 332 332 333 333 334 333 334 334 333 332
317 318 319 319 320 320 321 320 317 314 314 315 318 322 325 326 329 330 333 335 338 338 337 337 337 338 337 337 337 337 337 338 338 338 338 337 337 335 335 334 333 332 331 332 331 332 332 330 327 328 330 331 331 328 326 326 327 330 330 327 328 330 329 327 326 324 323 323 323 322 322 320 321 322 327 331 334 333 333 332 323 319 324 326 326 327 331 332 332 333 333 334 333 333 333 333 332
317 318 319 320 321 320 320 319 318 315 314 316 317 323 326 328 331 332 336 337 338 337 337 337 337 338 337 337 337 337 337 338 337 337 338 337 336 335 335 335 334 333 332 332 332 332 331 328 325 326 329 329 330 328 326 325 325 327 328 327 327 328 330 329 329 329 327 325 324 324 324 325 328 331 334 334 334 333 333 332 325 323 328 328 327 329 332 332 333 333 333 333 332 332 332 331 329
317 318 319 320 320 320 320 318 319 317 316 318 318 323 328 330 332 334 337 337 337 337 337 337 337 338 337 338 337 337 338 338 337 336 338 336 335 334 335 335 334 333 332 332 332 332 329 327 325 325 326 327 328 327 325 325 324 326 326 327 328 327 329 330 330 329 327 327 328 329 331 333 334 334 334 334 334 333 332 332 327 324 329 330 330 331 331 332 332 332 332 332 331 330 330 329 326
318 318 319 320 320 320 318 316 317 317 319 322 321 324 329 331 333 335 337 337 336 336 336 337 337 338 338 338 337 338 338 338 337 336 337 336 335 334 334 334 333 332 331 332 331 330 328 326 326 327 326 326 326 324 325 326 327 328 327 328 329 327 327 328 328 329 327 329 332 332 334 334 334 333 333 333 333 333 331 332 328 324 327 330 331 332 332 332 332 331 331 330 329 329 328 329 328
319 319 319 319 319 319 317 316 316 318 322 325 325 327 331 333 335 335 336 336 336 336 336 336 336 337 338 337 338 337 336 337 336 336 336 335 334 334 334 332 331 331 330 331 331 331 329 327 328 328 326 326 326 325 327 330 330 330 330 331 331 329 327 327 328 329 329 330 333 333 333 333 334 334 333 332 332 333 332 330 329 325 325 330 332 332 332 333 332 331 330 329 328 327 329 331 331
318 319 320 319 319 318 317 317 317 320 324 327 329 331 333 335 336 335 335 335 336 336 336 336 336 336 338 337 338 337 336 336 336 335 335 334 334 334 334 332 331 331 331 331 331 331 330 327 328 330 328 328 327 328 330 332 331 331 332 331 329 328 327 327 329 331 330 331 333 333 333 333 334 334 333 332 332 332 331 329 328 326 323 326 330 332 332 332 332 331 330 330 328 328 330 331 330
318 319 319 319 319 318 316 317 319 321 324 328 331 334 336 336 336 335 334 335 336 336 337 337 335 335 338 337 338 337 336 335 335 335 335 334 333 334 334 332 332 331 331 332 330 330 331 329 330 331 330 330 330 332 333 332 332 332 331 328 326 326 326 327 329 331 331 331 332 333 333 333 334 334 332 331 331 329 328 327 325 324 322 323 326 330 331 331 332 331 331 330 330 330 331 329 328
318 318 319 318 318 316 315 317 320 321 325 330 333 336 337 336 336 336 334 335 336 337 337 336 335 335 338 337 337 337 336 335 335 335 334 334 333 332 334 332 331 331 331 331 330 331 332 331 331 331 329 331 333 333 333 332 331 331 330 327 325 325 325 327 329 330 331 330 331 332 332 333 334 333 331 329 327 326 325 325 324 323 322 321 324 327 329 330 331 330 331 331 331 330 329 328 327
318 318 319 318 316 315 315 317 320 322 327 330 334 336 337 336 336 336 335 336 336 338 336 335 335 336 337 337 337 336 335 335 336 335 334 333 332 332 334 332 331 332 331 330 329 332 333 330 329 330 329 331 333 333 332 332 331 329 328 326 325 325 325 327 329 330 331 331 331 331 332 333 333 331 330 328 325 325 325 325 325 324 321 319 321 325 327 329 330 330 330 330 330 330 329 328 327
318 318 318 317 315 316 317 318 320 324 327 329 333 336 337 337 336 335 336 337 337 337 337 336 336 336 337 337 337 336 335 335 335 334 334 333 332 332 333 332 332 332 332 331 330 331 332 330 329 330 331 331 332 332 330 330 330 328 326 325 325 326 326 327 329 331 331 331 331 331 331 332 331 330 328 326 325 325 325 326 326 326 325 321 319 322 326 328 329 329 330 329 329 329 329 328 327
319 318 318 317 317 318 318 319 322 324 327 329 333 337 337 337 337 336 336 338 337 336 337 337 336 337 337 337 337 336 335 335 334 335 334 333 331 332 333 332 332 333 332 332 331 331 331 331 332 332 332 332 333 334 330 329 330 327 325 324 324 326 326 325 327 330 331 331 331 331 331 330 330 329 327 326 325 324 324 325 326 327 327 325 321 318 321 326 329 329 329 329 329 329 329 328 327
319 319 318 318 318 320 319 320 322 323 325 330 335 337 337 337 338 337 337 337 337 338 337 337 336 336 336 337 336 336 336 334 334 335 335 333 329 330 332 332 332 333 333 334 332 331 331 331 333 334 334 333 332 331 330 331 330 327 325 324 325 328 328 327 327 328 329 329 329 328 328 327 326 325 324 324 323 323 324 324 325 325 325 326 325 320 318 320 325 327 328 328 329 329 329 328 327
318 319 320 319 318 319 320 321 322 322 323 329 335 337 337 338 338 337 337 337 338 338 336 336 336 336 335 335 334 335 336 335 335 335 334 332 329 330 331 332 333 333 334 334 332 331 331 331 333 334 334 334 331 328 328 331 330 327 326 326 328 330 330 330 329 328 327 327 327 326 326 326 325 324 324 323 322 322 322 323 323 324 324 325 325 325 321 318 318 320 323 325 326 327 328 328 327
318 319 320 320 318 318 320 322 323 322 324 330 336 337 336 338 338 338 339 337 337 337 336 336 335 335 335 335 336 336 335 335 336 334 334 333 331 330 331 332 332 333 334 333 332 332 332 332 333 333 333 333 331 327 328 330 330 328 327 328 329 327 328 328 327 328 329 329 328 328 328 329 329 328 327 326 325 322 322 322 322 323 324 324 324 325 324 322 318 317 317 317 319 320 323 325 326
318 319 320 319 318 318 320 322 322 322 325 332 337 336 334 336 338 338 337 337 337 336 336 336 335 335 335 336 336 336 334 334 335 335 335 334 333 331 331 333 333 333 334 333 334 333 332 333 333 332 333 333 330 329 328 328 329 328 326 327 326 324 327 328 325 327 329 329 329 329 329 329 329 329 328 329 328 325 323 323 322 322 322 323 324 324 324 324 322 320 318 316 315 314 315 319 322
318 320 319 318 318 319 321 323 323 323 325 331 336 336 333 334 337 337 336 337 336 336 336 335 336 335 335 335 336 335 334 334 335 335 335 334 334 333 332 333 333 334 334 334 333 331 331 333 333 332 332 331 330 328 328 328 329 327 324 324 324 324 327 328 326 328 329 329 329 329 328 329 329 328 328 329 329 327 324 324 324 323 322 322 323 324 324 324 323 323 322 321 317 314 314 319 322
319 320 319 319 320 322 324 325 326 326 326 330 336 336 335 334 336 336 335 336 335 336 336 336 336 335 335 335 336 336 335 335 335 335 335 334 333 332 332 332 333 333 333 333 331 329 330 331 331 332 331 330 327 325 326 328 328 325 323 322 323 325 326 326 326 327 328 328 328 328 328 329 329 328 328 328 327 326 323 322 323 324 323 323 323 323 324 324 324 324 325 325 322 321 324 327 328
319 320 319 319 322 324 327 329 328 329 329 332 334 335 335 335 336 335 335 336 335 335 336 336 336 335 335 335 335 336 336 335 334 335 334 333 332 332 332 333 334 333 332 333 331 330 330 329 330 330 330 330 327 324 324 326 326 324 323 324 325 326 326 326 326 326 326 326 327 327 329 329 329 329 328 329 329 330 329 326 325 326 325 325 325 325 325 324 324 325 326 326 328 330 332 332 331
319 321 321 322 324 326 329 331 331 331 331 332 333 333 334 335 335 335 335 334 334 336 335 335 335 334 335 334 334 335 335 335 335 334 334 333 332 332 332 332 333 333 333 333 332 330 330 331 332 331 329 329 327 325 325 326 325 325 325 326 326 326 327 327 326 326 327 327 327 328 328 329 331 332 330 332 335 335 335 333 330 330 332 330 327 331 333 330 328 328 328 329 332 335 334 333 333
321 324 326 326 327 327 329 332 332 332 331 332 332 332 333 334 335 335 335 333 332 334 333 334 334 334 335 334 334 335 334 335 335 334 334 333 332 332 332 332 333 333 333 333 331 330 330 331 332 330 328 328 327 326 326 326 325 325 324 325 325 326 327 327 327 328 329 329 329 329 330 331 333 334 332 334 336 336 336 336 335 334 337 334 331 335 336 334 334 334 333 334 334 335 334 334 334
322 325 329 329 329 329 330 332 332 332 331 331 332 332 333 334 334 334 333 333 332 333 333 334 334 334 334 334 334 334 334 335 334 333 333 332 331 332 332 331 331 332 332 332 331 330 329 330 330 329 328 328 326 325 325 325 324 323 323 325 326 328 328 327 328 329 330 330 330 331 331 332 333 334 333 334 334 335 335 335 336 335 336 336 333 334 333 332 335 335 335 335 335 334 334 334 335
323 326 329 329 329 330 332 332 333 332 332 332 332 333 334 333 333 333 333 332 332 333 334 334 334 334 333 334 334 334 333 334 333 333 332 331 329 329 329 328 327 328 330 331 331 330 329 328 328 327 327 328 327 326 325 325 324 324 326 327 327 328 328 328 327 327 327 327 329 329 330 330 331 332 333 333 333 333 333 333 335 335 336 335 333 334 333 331 332 333 334 335 335 335 335 335 335
325 327 329 330 331 332 333 332 332 332 332 333 332 334 334 332 332 332 332 332 332 333 334 334 334 334 333 334 334 333 333 333 333 333 331 330 328 328 327 326 325 326 328 329 329 329 328 327 327 327 327 328 328 327 329 329 328 327 329 328 328 327 326 326 324 323 323 323 325 324 325 325 325 327 328 329 330 330 331 332 334 335 335 335 334 335 335 334 333 333 334 335 335 335 335 336 336
327 328 329 331 332 333 333 332 333 332 332 332 332 333 332 332 332 332 332 331 332 333 333 333 333 333 333 333 333 333 333 332 333 332 331 330 329 328 327 327 327 326 325 325 326 327 328 327 327 327 327 327 326 327 330 330 330 329 328 328 328 326 323 323 322 322 320 320 321 320 319 318 319 320 321 323 325 325 327 329 332 334 335 334 335 336 334 334 336 335 336 336 335 335 335 335 335
329 329 329 332 333 332 332 332 332 332 332 332 331 330 331 331 331 331 331 331 332 332 333 333 332 333 333 332 332 333 333 332 333 332 331 330 329 329 328 328 327 326 324 324 327 326 325 326 327 328 327 327 327 328 328 328 329 329 327 326 326 325 323 323 322 321 320 318 317 316 314 314 314 314 315 317 318 321 325 325 326 328 331 332 332 334 333 332 334 335 336 335 335 335 334 335 335
329 329 329 331 332 331 331 331 331 330 331 331 330 329 330 329 330 331 331 331 332 332 333 333 332 332 332 332 332 333 332 332 333 332 332 330 329 329 329 329 327 327 327 326 328 326 324 327 328 329 328 328 328 328 328 327 327 327 325 323 322 323 322 321 320 319 319 317 315 315 313 313 312 311 311 311 313 316 318 320 322 322 324 327 328 330 331 330 332 333 332 333 334 334 335 334 334
328 327 327 328 329 329 329 330 330 329 329 330 328 327 327 327 331 332 331 331 332 332 332 332 332 332 332 333 333 333 332 332 333 333 331 328 327 328 329 329 327 330 330 327 327 326 324 327 328 329 329 328 328 328 328 326 326 325 323 321 320 321 319 318 318 318 317 316 315 314 314 314 312 313 312 311 315 316 312 315 321 322 322 321 322 324 328 329 330 332 331 332 334 334 334 334 333
326 326 325 326 326 327 328 329 329 328 329 329 327 326 326 328 332 333 331 331 332 332 332 332 331 332 332 332 333 333 332 333 333 333 332 328 327 328 329 329 328 329 330 328 328 327 325 325 327 328 328 328 327 327 326 325 323 320 318 317 318 318 317 317 318 317 317 317 318 316 316 318 316 316 317 316 319 321 317 313 318 323 320 318 322 322 327 330 329 330 331 331 332 332 332 332 332
325 324 323 324 323 323 327 329 328 328 330 330 327 325 324 327 333 334 332 332 332 332 332 331 331 331 331 332 332 333 333 333 333 333 333 331 330 330 329 329 329 329 328 327 328 328 326 325 325 327 327 327 326 325 325 322 319 316 314 315 317 317 318 319 320 320 321 322 323 320 318 320 320 320 322 320 320 324 324 318 318 319 316 321 327 323 325 329 329 329 329 329 329 329 329 330 330
324 322 320 322 321 322 327 328 328 328 329 330 327 324 322 324 332 334 333 333 333 332 332 331 331 331 331 331 331 332 333 333 333 333 333 332 332 331 329 328 329 329 328 328 327 327 327 324 324 325 326 326 325 324 323 320 317 313 313 316 318 321 323 324 324 324 325 325 325 322 319 321 322 322 322 321 320 324 326 323 320 316 314 322 324 322 326 328 328 328 328 327 328 327 327 327 328
322 321 318 320 320 322 325 326 327 328 327 328 326 325 323 324 331 334 334 334 333 333 333 332 332 331 331 331 331 331 332 333 333 333 332 332 332 331 330 329 329 329 329 329 328 328 327 324 323 324 324 324 323 321 319 318 315 314 316 319 321 324 326 326 326 325 325 324 323 321 318 321 322 322 321 320 320 322 324 323 321 317 318 320 317 320 326 327 327 326 326 327 327 327 327 326 327
319 320 319 319 321 321 321 323 326 327 326 326 325 325 324 324 328 333 334 335 333 332 334 334 333 332 331 331 331 331 332 333 333 333 332 331 331 331 330 329 330 329 329 329 328 328 326 323 322 323 322 321 320 319 318 317 314 314 317 319 320 321 322 324 326 325 324 324 322 319 319 321 321 321 321 319 319 320 321 321 320 319 320 320 320 323 324 324 323 323 325 327 325 325 327 326 326
318 319 318 319 320 320 320 322 324 325 325 325 325 325 324 323 325 329 332 333 332 332 333 334 333 333 332 332 332 331 332 332 333 333 332 331 330 330 331 329 329 329 328 327 326 325 324 322 321 321 320 319 318 317 315 314 313 315 318 320 321 323 323 324 325 325 324 323 320 318 319 320 320 320 320 318 318 319 319 318 318 318 319 319 321 324 325 324 322 322 324 326 325 324 325 326 325
318 319 319 319 318 319 321 322 323 325 325 324 324 324 323 323 323 326 330 332 332 333 334 333 333 333 333 333 333 332 332 333 334 331 330 330 329 329 330 330 329 329 328 325 324 324 323 322 321 319 319 318 316 317 317 319 321 321 323 324 323 324 325 324 323 324 324 322 319 317 319 319 319 319 319 318 318 318 318 317 317 317 317 318 318 320 323 323 323 324 325 325 326 326 325 326 326
319 319 319 319 318 319 321 322 323 325 325 323 323 323 323 323 323 325 329 331 332 333 334 334 333 333 333 333 333 333 333 334 333 331 329 330 328 327 329 329 328 327 325 325 324 323 322 321 320 319 318 317 316 317 319 323 326 326 326 325 324 326 326 325 323 323 322 320 318 319 319 319 318 317 317 318 318 318 318 317 317 317 316 317 318 318 319 319 320 322 323 325 326 326 326 327 325
319 319 318 318 319 319 321 323 323 324 324 323 322 322 323 323 323 325 328 329 330 331 332 333 333 332 332 332 332 333 334 334 333 332 331 331 330 328 328 328 326 325 324 323 323 321 320 319 318 318 317 315 312 312 313 316 321 324 324 323 324 324 324 325 324 321 318 316 316 318 318 318 317 316 316 316 317 317 317 317 317 317 316 316 318 317 317 318 318 319 320 324 326 325 326 326 323
319 318 318 317 318 319 321 322 323 324 323 322 322 322 322 322 322 325 328 328 329 331 331 331 332 333 332 331 331 332 334 334 333 333 332 331 331 330 329 328 327 325 323 321 320 318 316 316 315 315 314 311 308 308 310 312 314 315 315 316 318 319 317 317 318 317 316 315 314 315 316 317 318 318 318 317 317 316 317 317 317 317 317 317 318 318 318 317 318 318 318 320 323 325 325 324 322
319 318 317 316 318 319 320 322 324 324 322 322 322 322 321 322 323 324 328 328 330 331 330 331 333 333 333 332 332 332 332 333 333 333 333 332 331 330 330 329 328 326 323 319 317 315 314 312 311 310 309 308 307 308 310 313 313 312 313 312 312 314 313 315 319 319 318 317 315 313 313 316 317 319 321 320 319 317 316 317 317 317 318 318 319 318 318 318 317 318 318 318 320 324 326 325 323
318 318 317 316 318 318 319 322 323 324 323 322 321 321 320 321 323 323 326 328 329 331 330 331 332 332 333 334 334 332 331 332 333 333 333 332 332 330 328 328 327 326 325 321 316 314 312 310 309 310 310 308 308 308 311 313 313 313 314 313 313 315 317 322 325 323 321 320 318 314 313 315 316 317 321 322 321 319 317 317 317 318 318 318 318 319 319 318 317 317 317 318 319 322 324 325 324
316 318 318 317 318 319 319 321 322 320 320 321 321 319 318 320 322 322 324 325 327 330 331 330 330 331 332 333 334 334 333 332 333 333 333 333 332 330 327 326 326 326 325 324 319 315 313 311 312 314 314 313 310 309 311 312 313 314 314 315 319 323 324 324 322 321 321 320 318 318 318 318 318 318 320 321 321 319 318 317 317 318 319 317 317 319 319 319 319 318 318 319 319 320 322 325 325
315 316 318 318 318 318 319 319 319 317 317 320 321 318 317 319 320 322 324 324 324 328 329 329 329 330 331 331 332 333 333 333 333 333 333 333 332 331 329 327 326 326 325 325 323 319 315 312 313 315 316 316 314 310 310 312 314 314 315 315 317 321 323 318 312 313 317 317 318 320 321 320 321 321 320 321 321 320 319 319 318 319 321 319 319 320 319 321 322 319 319 319 320 321 323 325 325
314 316 317 318 318 317 318 319 318 317 318 319 320 319 317 317 319 323 324 324 323 324 326 327 328 329 331 331 331 332 333 333 334 333 333 334 332 331 331 329 326 325 325 325 325 322 318 314 313 316 316 317 317 313 311 313 314 314 316 315 313 316 317 312 309 310 312 316 317 320 322 321 321 321 319 320 320 320 319 320 320 320 321 320 320 322 321 322 323 321 320 320 321 323 323 324 325
315 317 318 318 318 318 318 319 318 318 318 317 318 319 317 316 319 323 324 323 322 323 324 325 326 328 330 332 332 332 332 332 333 333 333 334 333 331 332 332 328 326 326 325 326 324 320 316 313 316 318 318 319 316 312 312 314 314 315 316 314 314 312 311 312 312 311 315 317 317 320 321 321 321 319 316 317 319 319 318 320 320 319 318 319 321 321 321 322 322 322 320 320 323 323 324 325
316 316 318 318 319 319 319 319 318 318 317 315 317 318 317 316 318 321 322 321 321 323 323 324 325 326 328 331 332 332 332 331 331 332 333 334 334 330 330 333 331 329 327 325 326 326 324 319 314 315 320 320 319 317 314 311 311 313 314 316 316 314 312 311 313 312 310 316 320 318 318 320 321 321 320 317 315 318 318 317 318 319 317 315 316 318 320 321 321 321 321 319 318 320 322 323 324
317 317 318 318 319 320 320 320 318 316 315 315 316 317 316 316 317 319 321 321 322 323 323 324 325 326 328 331 331 331 332 331 331 331 332 334 333 330 329 332 332 331 329 327 326 326 325 324 319 316 318 319 318 317 317 312 310 311 312 314 316 314 313 311 310 311 312 318 323 321 320 321 322 321 320 320 317 316 317 316 316 318 317 315 315 318 320 321 321 321 321 318 316 316 317 320 322
317 318 318 317 317 318 318 318 317 315 314 316 317 317 317 316 317 320 322 322 323 323 323 324 325 326 327 329 330 330 331 331 331 331 331 333 333 330 328 331 332 332 331 330 328 326 325 325 323 321 318 317 316 318 319 315 310 310 311 313 314 315 314 312 314 317 316 321 324 323 322 322 322 321 320 320 318 315 315 317 317 319 318 315 316 319 320 321 320 321 321 318 315 315 314 316 319
318 317 317 315 314 315 314 315 314 314 315 316 317 317 316 316 318 321 322 322 324 325 325 325 327 327 327 328 329 330 331 331 331 332 332 333 332 331 330 330 331 331 331 331 330 328 326 324 324 324 323 321 319 319 321 320 314 309 309 311 313 314 314 312 317 320 317 320 323 322 323 323 322 321 320 319 318 315 316 317 317 317 317 316 318 320 320 320 320 320 320 318 315 313 313 316 318
318 317 316 314 314 313 313 314 314 315 316 316 317 317 316 316 319 321 322 323 326 327 326 327 329 329 327 327 327 329 331 331 331 332 333 333 333 332 331 330 330 330 330 330 330 330 328 326 324 325 326 325 323 322 323 323 319 312 308 310 311 313 314 312 315 316 314 315 318 318 321 322 321 320 319 317 316 316 318 318 317 316 317 317 318 319 319 319 319 319 319 318 315 313 316 318 319
317 317 316 315 314 314 314 314 314 315 316 316 317 317 316 316 319 321 322 324 327 327 327 329 330 329 328 328 327 329 330 330 331 331 332 332 332 332 331 329 330 330 329 329 329 330 330 329 327 326 326 326 325 324 324 324 322 316 310 309 310 311 312 312 312 312 310 311 313 315 315 316 317 317 315 312 312 316 318 318 318 317 317 317 317 318 318 317 318 317 318 319 315 314 318 319 319
317 318 317 316 316 316 316 317 318 317 316 316 316 317 318 319 321 322 322 324 325 326 327 329 329 329 330 329 329 330 330 330 330 331 331 330 329 329 329 328 328 329 328 328 329 329 329 329 328 326 326 326 325 325 325 325 324 319 313 310 309 310 311 312 313 312 311 310 311 314 313 313 313 312 311 309 311 317 318 318 318 316 316 317 316 317 317 317 317 316 317 317 314 314 318 318 318
317 317 316 316 318 318 317 317 320 319 316 316 316 317 319 319 321 322 322 322 323 324 325 325 326 328 329 329 330 329 329 330 330 330 331 330 328 326 326 327 327 327 328 327 327 328 328 327 327 326 326 326 326 326 326 326 325 322 316 311 309 309 309 310 312 312 311 310 311 313 312 312 311 310 310 309 311 317 319 318 317 316 316 316 316 316 316 316 316 315 314 314 311 313 317 317 317
318 316 317 318 319 319 318 316 316 316 315 316 317 317 317 317 319 322 322 322 322 322 323 323 324 325 326 327 329 330 330 329 329 330 329 329 328 326 325 326 327 327 327 327 327 328 328 326 326 326 326 326 327 327 327 327 327 324 317 312 310 309 309 310 311 312 311 309 311 312 312 312 310 309 309 308 311 317 318 317 317 316 316 316 316 316 315 313 312 311 311 310 310 312 314 315 315
319 318 318 319 317 317 318 316 315 316 315 316 316 317 317 316 319 322 322 323 323 322 323 323 323 324 324 326 328 331 332 331 330 330 329 328 328 327 325 325 326 326 326 327 327 327 327 326 326 326 326 326 327 328 328 328 328 326 320 314 313 311 309 310 310 311 310 310 311 312 312 312 311 310 310 309 313 317 318 318 318 317 316 316 315 314 313 311 309 309 310 311 310 310 312 312 311
320 320 320 320 319 318 318 317 317 317 316 316 316 317 317 318 320 322 322 323 323 323 322 323 324 325 325 326 327 330 331 332 332 331 331 329 326 326 325 323 325 326 325 325 326 325 326 325 325 325 325 326 327 327 328 328 328 327 323 318 319 317 315 313 312 311 311 311 313 314 313 312 311 310 309 310 315 317 318 318 317 316 316 316 315 312 309 308 306 307 310 310 309 309 310 310 310
320 320 320 320 320 319 320 320 318 317 316 316 316 316 318 320 321 322 323 323 323 323 323 323 324 325 326 327 327 328 329 331 331 330 330 328 324 323 324 323 325 326 325 324 324 323 324 324 323 324 324 324 325 325 327 327 327 327 325 323 323 324 323 320 315 313 312 312 313 313 313 313 312 311 309 311 316 317 318 318 317 317 316 315 315 311 305 305 306 305 307 308 308 308 309 309 308
321 321 320 321 320 319 319 318 319 318 317 316 317 316 318 321 322 322 323 323 323 323 323 323 323 326 328 327 328 329 329 330 331 329 329 329 325 324 325 324 324 325 325 325 324 323 323 322 323 323 323 323 324 325 325 326 327 327 326 326 326 327 327 325 320 314 312 313 313 312 312 313 313 311 309 311 316 317 317 317 317 317 316 315 314 310 304 303 304 302 303 305 305 305 305 305 305
Wind_Speed
2 2 3 4 4 0 4 5 7 4 4 4 2 2 3 3 4 2 2 1 2 4 5 4 6 5 4 4 4 6 8 6 5 5 3 4 5 7 7 5 6 5 6 7 7 6 6 7 6 4 4 4 4 4 2 2 2 3 4 3 4 5 8 8 7 8 8 8 8 8 7 7 6 5 5 7 8 8 9 9 9 8 7 9 10 12 14 15 15 14 14 14 14 14 14 14 13
3 3 4 4 3 4 5 4 6 3 5 4 4 1 4 2 1 2 2 2 3 5 4 5 6 6 7 5 4 4 7 9 5 5 5 5 7 8 5 4 5 5 6 7 8 7 6 7 6 4 4 3 4 4 2 3 3 3 4 4 3 3 6 7 7 7 7 7 7 7 6 6 5 6 8 9 9 9 9 10 10 9 8 11 12 13 15 15 14 13 13 14 14 13 13 13 13
2 4 4 3 3 6 6 4 6 4 5 4 4 3 3 1 2 4 4 4 5 5 3 4 4 5 3 1 3 4 5 7 6 6 6 7 7 6 4 4 5 5 6 7 8 7 7 7 5 4 5 4 4 4 3 4 5 4 4 5 3 2 5 7 7 7 6 6 6 7 7 8 9 10 10 10 9 9 10 11 12 12 11 14 15 15 15 14 13 13 13 13 12 11 11 11 11
2 4 5 4 6 6 6 5 4 4 4 2 3 4 2 2 3 4 5 5 4 3 2 1 1 5 5 3 4 3 6 7 7 6 6 8 6 4 4 5 5 6 6 7 8 7 7 6 4 4 5 5 5 5 4 5 5 5 4 4 4 2 5 7 7 7 7 8 9 10 11 11 11 11 10 9 10 11 11 12 13 14 14 16 17 16 15 14 13 12 12 12 11 11 11 11 11
2 2 5 6 7 2 3 3 2 5 2 1 2 4 2 3 3 4 5 4 4 2 1 1 0 3 4 8 6 3 5 5 6 7 6 8 6 4 4 5 5 6 6 7 8 7 7 6 5 5 5 5 5 5 6 6 7 6 5 4 5 5 5 6 6 7 9 11 12 13 13 12 10 10 10 9 11 12 11 11 12 13 13 14 15 15 15 14 13 12 11 10 10 10 11 11 11
3 3 4 5 5 1 4 4 4 5 2 4 2 4 3 3 3 4 5 5 5 3 2 1 1 3 5 7 6 7 5 3 5 5 6 7 5 4 4 5 6 7 7 8 8 7 7 7 6 7 6 5 4 6 7 8 9 7 7 5 5 6 6 6 6 8 10 11 11 11 11 11 10 10 10 9 10 12 12 11 12 12 12 12 12 13 13 13 13 12 11 9 9 9 10 11 10
6 6 6 6 3 3 7 4 4 3 4 4 3 3 3 4 3 3 4 3 4 4 3 3 2 3 4 4 5 8 5 3 5 4 6 7 6 5 5 7 8 8 8 8 8 7 7 7 7 7 6 5 5 6 7 8 9 8 7 6 6 7 6 7 7 7 9 9 9 9 10 10 11 10 10 10 10 12 12 11 11 12 11 11 11 11 11 11 12 12 12 10 10 9 9 10 10
9 9 6 6 4 4 6 3 2 1 4 1 2 2 3 3 3 3 3 1 2 3 3 4 2 1 3 2 4 7 5 5 7 6 6 7 7 6 6 8 8 8 8 7 8 7 7 7 6 6 6 6 6 6 8 8 9 9 8 6 7 8 6 7 8 8 8 8 8 9 9 11 11 10 11 11 11 12 11 9 9 10 10 10 10 10 10 10 10 11 11 11 10 9 9 10 11
10 10 5 6 4 4 5 3 2 2 2 1 2 2 1 1 2 2 2 2 2 3 3 3 1 1 4 4 6 7 5 6 8 8 6 7 7 6 7 8 8 8 8 8 8 7 6 6 6 6 6 6 6 7 9 10 9 10 9 7 8 8 6 6 8 8 9 9 8 9 11 12 11 10 11 11 10 11 8 7 8 9 9 8 8 8 8 8 9 10 10 11 11 10 10 11 12
11 11 7 5 4 4 5 4 3 2 2 1 2 2 1 1 0 1 1 3 2 2 3 3 1 1 5 5 7 7 6 7 8 8 7 7 7 6 7 7 9 8 8 8 8 6 6 6 5 6 6 6 7 8 10 10 9 9 9 8 8 8 7 7 7 7 8 9 9 9 11 11 11 10 10 10 10 9 7 7 8 8 9 8 8 8 8 8 9 9 10 11 11 10 9 10 12
11 10 7 5 5 5 5 4 4 3 3 2 2 2 1 1 1 1 1 2 2 1 2 2 1 4 5 5 6 5 6 7 7 8 7 7 7 7 7 7 8 8 8 7 7 5 6 7 5 5 5 6 7 7 9 10 9 9 10 9 9 9 9 9 9 7 7 9 9 9 11 11 11 10 10 10 9 9 8 8 8 9 9 9 9 8 7 8 8 9 10 10 9 9 8 9 11
8 8 6 5 5 4 2 2 5 4 4 3 3 2 0 1 2 2 1 1 1 1 3 2 1 2 2 5 5 5 6 6 7 8 8 8 7 7 7 6 7 8 8 7 6 5 5 6 5 5 5 7 8 8 9 10 10 11 11 9 9 10 11 11 9 7 7 9 9 9 10 11 11 10 9 8 8 8 8 8 9 10 10 10 9 8 7 7 7 8 9 8 7 7 7 7 8
7 7 7 4 3 2 1 1 4 4 4 3 3 3 1 1 2 1 1 0 1 0 3 3 3 1 2 5 5 6 6 6 7 8 10 10 7 7 8 7 7 8 7 6 5 4 4 5 5 5 5 6 10 11 11 11 11 11 10 9 10 11 12 12 9 7 7 8 8 8 9 10 10 9 8 7 7 8 7 8 8 9 9 9 9 8 8 7 7 7 7 6 6 6 5 6 6
5 6 6 2 2 2 1 1 4 4 2 4 3 3 2 0 0 0 0 1 1 2 3 4 2 1 1 5 3 5 6 5 7 9 11 11 8 7 8 8 8 8 7 6 5 5 4 5 6 6 7 7 11 14 12 11 11 11 11 10 10 12 12 11 10 9 8 8 8 8 8 9 9 8 8 7 7 7 7 7 7 8 8 9 9 8 7 6 6 6 5 4 4 4 4 4 4
4 5 5 2 4 3 2 0 2 3 2 4 4 4 3 1 1 1 1 2 3 3 3 3 4 2 1 2 3 7 7 6 8 9 11 11 8 6 8 9 8 8 8 7 5 5 5 5 5 6 7 7 9 12 12 11 11 10 10 10 10 11 11 10 10 9 9 9 8 8 8 9 9 9 8 7 6 6 6 6 6 7 7 7 8 8 8 6 5 3 3 2 2 2 2 2 2
3 5 5 2 4 3 2 1 1 2 2 4 5 4 3 4 2 2 3 3 4 4 3 4 6 5 5 5 5 8 8 7 7 9 10 11 9 5 6 8 8 8 7 7 6 5 5 5 5 7 8 7 8 10 11 10 10 10 9 9 11 10 9 9 9 7 8 9 9 8 8 8 9 9 9 9 7 7 6 6 5 6 6 6 7 7 7 7 6 5 3 1 0 1 1 1 1
4 5 5 3 3 2 3 3 1 1 2 4 6 5 2 4 3 4 4 4 5 4 5 5 5 6 7 7 7 8 7 7 7 10 10 10 10 7 6 7 8 8 7 7 6 6 6 5 6 7 9 8 8 10 10 9 8 9 9 9 10 9 8 8 7 5 7 8 8 8 7 8 9 9 8 8 7 7 6 6 6 5 5 5 6 6 6 6 6 6 5 4 3 2 1 0 0
5 4 4 2 2 1 2 1 1 2 1 3 5 3 1 1 3 3 2 4 5 4 5 5 6 6 6 7 7 7 7 7 8 9 10 9 8 7 8 7 6 8 8 7 6 7 7 7 7 7 8 8 8 10 9 8 7 9 10 9 6 7 7 7 5 4 6 7 8 8 8 9 9 9 8 8 8 7 6 6 7 7 6 6 5 5 5 5 6 6 6 6 6 5 4 2 1
4 2 2 1 3 4 2 2 1 2 4 2 4 2 2 4 4 1 2 2 2 2 4 4 5 5 5 8 7 8 8 8 9 8 9 8 7 7 8 8 7 7 8 6 6 8 8 7 7 7 8 8 9 9 9 8 8 10 12 8 5 6 7 7 5 5 6 7 7 7 8 9 9 9 8 8 9 8 7 7 7 7 7 6 6 6 5 5 5 5 5 5 5 7 6 2 1
2 3 2 4 5 4 3 2 2 4 6 4 4 3 4 6 5 2 4 0 1 4 6 4 4 6 7 8 7 8 8 9 9 9 8 8 9 9 8 8 7 7 7 6 6 7 8 8 7 8 9 9 9 9 9 9 8 10 13 11 8 7 8 7 7 8 8 7 7 7 8 9 9 9 8 9 8 7 7 7 7 7 7 6 5 5 5 5 4 4 3 4 5 5 3 2 3
1 3 3 6 3 3 5 5 5 6 6 5 5 3 5 6 4 3 5 2 2 6 7 6 4 6 7 8 7 7 7 9 9 9 9 8 9 8 7 7 7 7 7 6 6 7 8 8 8 9 11 11 9 9 9 9 9 9 10 9 8 9 9 9 9 9 9 8 8 8 8 8 8 7 7 7 5 4 4 4 5 6 5 4 4 4 2 2 3 2 2 1 2 2 3 3 2
1 2 5 5 2 3 7 6 6 6 5 6 5 5 5 4 4 6 6 2 3 4 4 4 4 7 7 7 7 7 8 9 9 9 10 9 8 8 7 7 7 7 7 7 6 7 8 8 9 10 12 11 10 10 10 11 11 10 8 8 10 12 12 12 11 10 9 8 8 8 8 7 8 7 7 7 4 4 3 2 4 4 3 2 3 2 1 1 1 1 2 1 2 3 3 2 2
0 3 5 5 4 5 7 6 6 6 6 6 6 6 4 2 4 7 7 6 5 3 3 4 5 7 7 6 6 7 8 8 8 8 9 9 9 9 8 7 7 7 7 7 7 8 8 8 9 10 11 12 12 12 11 11 11 11 11 11 13 15 15 14 13 12 10 9 9 9 8 7 7 7 7 6 4 4 3 2 2 2 2 1 2 1 0 1 1 2 2 2 2 2 3 3 2
1 4 6 6 6 7 7 6 6 6 7 7 5 4 3 2 3 5 6 6 6 4 6 6 7 7 7 6 7 7 7 7 8 7 8 9 8 9 8 7 7 7 7 8 8 8 8 8 9 9 10 13 14 14 14 12 13 14 14 16 17 15 15 15 15 14 12 10 10 9 7 6 6 6 5 4 4 3 2 2 2 2 2 1 2 2 1 0 1 1 2 2 2 2 2 2 2
2 5 7 6 7 8 7 6 6 7 6 5 3 4 5 4 4 6 7 6 6 6 7 7 7 7 6 6 7 7 6 7 8 7 7 8 8 8 7 7 6 7 7 7 8 8 8 8 9 9 10 12 14 15 15 13 16 19 17 18 18 16 15 14 14 13 12 10 9 8 7 6 5 5 4 3 3 2 1 2 2 2 1 1 2 1 1 1 0 0 1 1 1 1 1 2 2
5 7 8 7 8 8 6 6 6 6 5 3 2 4 4 3 5 7 8 6 7 7 8 8 8 6 5 6 6 6 6 6 6 6 6 7 8 8 7 7 6 5 5 6 8 8 8 8 9 10 10 12 13 14 14 11 14 19 18 17 17 16 15 13 13 12 11 10 8 8 7 5 5 4 3 3 3 3 2 2 1 1 2 2 1 2 2 0 1 1 1 1 1 0 1 1 1
8 8 9 8 8 7 5 6 5 4 4 4 3 3 2 1 2 5 6 6 7 8 9 8 8 6 4 5 5 4 5 5 5 5 6 7 7 7 7 7 6 5 5 6 7 6 7 9 10 12 12 13 14 15 15 13 13 15 16 14 15 16 14 12 11 10 10 9 8 8 7 6 5 4 2 2 2 3 3 3 3 3 3 3 3 3 3 2 2 1 2 2 2 1 1 2 1
9 8 9 8 7 7 5 5 4 2 3 3 4 1 2 3 3 4 6 6 7 8 9 8 7 6 4 5 5 4 4 4 4 5 6 6 6 6 6 6 6 6 4 5 6 6 7 9 11 13 14 14 15 15 15 14 13 13 14 12 13 12 11 10 9 9 8 8 9 9 9 8 7 6 4 3 2 2 3 4 4 5 5 5 5 4 4 4 3 3 3 3 2 2 2 2 2
7 3 4 7 6 5 4 3 3 2 2 3 5 2 4 5 5 7 8 7 8 8 8 8 6 5 4 4 4 4 4 4 4 5 5 5 6 5 5 5 6 6 4 4 6 7 8 9 12 14 14 14 14 13 13 12 12 11 10 10 10 9 8 8 8 9 10 10 11 11 10 9 9 8 7 7 6 4 2 1 2 3 5 6 5 4 4 4 4 4 4 3 3 2 2 3 3
5 2 1 4 5 5 5 2 1 1 2 3 5 0 5 7 6 8 9 8 7 7 7 7 6 5 4 4 4 4 4 4 4 4 4 4 5 4 4 4 5 5 4 4 6 8 8 9 11 13 12 12 12 11 11 11 11 10 9 9 9 8 8 9 10 12 13 13 12 13 12 11 10 10 9 10 9 7 6 3 2 2 3 4 3 4 3 3 3 4 4 4 3 3 3 4 3
3 2 1 1 1 5 5 3 1 1 2 4 6 1 6 7 5 7 8 7 6 5 6 6 6 5 4 4 3 3 4 4 4 4 4 4 4 4 3 3 4 4 5 4 6 7 8 9 10 11 11 10 10 10 10 10 10 10 10 10 10 10 10 12 13 13 13 11 10 12 12 11 10 10 9 10 9 8 7 6 5 3 1 1 1 3 3 2 3 3 3 3 3 3 3 4 3
1 1 2 2 3 5 5 4 2 1 2 4 7 2 6 5 4 7 7 8 6 6 6 6 6 5 4 4 3 3 3 3 4 4 4 4 4 3 2 3 3 4 5 5 7 8 8 9 9 9 9 9 8 8 9 9 10 10 11 11 11 11 11 11 12 12 11 10 9 10 11 9 9 9 9 9 9 8 7 7 7 5 4 2 1 2 1 1 2 3 3 3 3 3 4 4 4
1 2 4 4 3 4 5 5 3 1 1 1 3 3 5 6 6 7 7 8 7 5 6 7 7 6 5 4 4 3 3 3 4 4 4 4 4 4 3 4 4 5 6 7 8 8 9 9 9 8 8 8 7 8 9 9 10 11 11 11 11 11 10 10 10 10 10 9 9 8 9 8 8 8 8 8 8 8 7 7 7 7 7 5 2 1 1 2 3 4 4 4 3 3 5 5 4
3 1 3 4 3 3 4 4 3 4 2 1 1 2 3 6 6 6 6 7 5 3 5 7 7 7 6 6 5 5 4 4 4 5 5 5 5 5 5 5 5 6 7 8 9 9 9 8 9 9 8 7 7 8 8 8 10 10 10 11 11 11 10 10 10 9 10 9 8 8 7 7 7 8 8 8 8 8 8 7 7 7 7 6 5 3 2 2 2 3 3 5 4 3 5 5 4
3 2 2 4 3 3 5 5 4 5 3 1 2 0 3 4 4 5 5 6 4 3 3 5 6 6 7 6 6 6 5 5 5 6 6 6 6 6 6 5 5 7 8 9 10 10 9 8 8 8 7 7 7 7 8 9 9 10 10 11 11 10 10 10 10 9 10 9 8 8 7 6 7 7 8 8 8 8 8 7 7 7 6 6 5 4 4 3 2 1 1 3 3 3 3 4 4
4 3 3 4 4 5 6 6 4 4 3 2 0 1 3 3 3 4 5 6 5 4 4 4 4 5 6 6 6 6 6 6 6 7 8 7 7 7 6 6 6 7 8 10 11 10 9 8 8 7 6 6 6 7 7 7 7 8 9 8 8 8 8 9 10 10 9 8 8 8 7 7 7 7 7 8 8 7 8 7 7 6 6 6 5 5 4 3 3 2 1 1 2 1 2 3 3
3 0 2 3 4 6 6 5 4 3 3 1 2 2 1 1 3 4 5 6 5 5 5 4 4 5 5 5 6 6 5 6 7 8 8 8 8 8 7 6 5 5 7 9 10 10 10 9 7 6 5 6 6 6 6 6 5 5 6 6 6 7 7 8 10 10 9 8 8 7 7 6 6 6 7 7 7 7 7 7 7 6 6 6 5 5 5 4 3 3 2 2 2 2 2 3 2
3 2 1 2 4 6 5 4 4 3 4 2 2 3 0 1 2 5 5 5 4 4 4 4 4 4 4 5 5 6 5 6 6 7 8 8 8 9 8 6 4 4 6 8 9 10 9 8 7 5 4 5 6 6 6 7 6 4 4 4 5 6 6 7 8 9 10 10 8 7 6 5 5 5 5 6 6 6 6 6 6 6 6 5 6 6 6 5 4 4 3 3 3 3 3 4 2
3 1 1 2 4 4 5 3 4 4 3 3 2 3 3 5 2 4 4 4 3 2 3 3 3 4 4 4 5 5 6 6 6 7 8 8 9 9 9 7 6 5 5 7 8 9 8 8 6 5 5 5 5 6 7 7 6 5 5 5 6 7 8 8 9 10 11 11 10 8 6 5 5 5 5 5 5 5 6 6 6 5 5 5 5 6 6 5 5 4 4 3 2 2 3 3 3
1 2 1 4 4 1 3 3 4 3 3 3 4 3 5 6 4 4 2 2 2 3 3 3 4 4 4 4 4 5 6 7 7 8 8 9 10 11 10 9 8 6 6 6 7 7 8 7 6 6 6 6 5 5 6 5 5 6 6 7 9 9 9 10 10 9 10 10 10 9 8 7 7 6 6 6 5 4 4 4 5 5 5 5 5 5 5 5 5 5 5 4 3 3 2 3 3
1 2 3 5 5 4 5 3 4 4 4 3 6 2 5 6 6 6 3 2 3 3 4 5 5 5 5 5 5 5 6 7 8 8 9 10 11 11 11 10 10 8 7 6 6 6 7 8 7 7 7 5 5 5 4 4 5 6 6 8 10 10 9 8 7 7 8 8 8 9 10 10 9 8 7 6 5 3 3 3 3 4 4 4 4 5 5 5 5 5 4 4 3 3 3 3 3
4 2 4 4 4 4 3 2 2 2 3 2 6 1 6 6 7 7 3 2 2 3 4 5 5 6 6 6 6 6 6 7 8 8 9 10 11 11 11 10 11 11 9 7 6 6 7 8 7 6 6 5 4 4 3 3 4 5 6 7 7 6 5 5 4 5 6 6 7 8 8 9 9 9 8 7 6 4 2 2 2 3 4 4 4 4 4 5 5 4 4 4 4 3 3 3 3
4 4 3 1 1 1 2 1 1 2 4 4 6 4 5 6 8 7 5 5 6 4 1 3 4 6 6 6 6 5 6 7 8 9 9 10 11 12 11 11 12 12 11 9 8 7 6 7 8 7 5 3 3 4 3 2 3 3 5 5 6 5 4 4 5 6 6 6 7 6 6 8 9 9 9 8 7 5 3 3 3 3 5 4 4 4 4 5 5 5 4 4 4 4 3 3 3
5 4 2 0 2 1 1 1 1 2 1 2 4 4 3 5 7 6 4 7 9 8 6 4 1 4 6 7 6 5 5 5 7 8 9 9 10 11 11 11 12 13 12 10 9 7 7 7 8 8 8 5 1 2 3 3 2 2 3 5 6 6 4 5 6 6 6 6 7 6 6 7 7 7 8 8 7 6 4 3 3 3 4 4 5 4 4 5 5 5 5 4 4 4 4 3 3
5 3 2 1 2 2 1 2 1 1 2 2 5 3 1 5 5 4 3 7 10 10 9 8 6 3 3 5 6 6 6 5 6 6 7 8 9 10 10 11 11 13 13 12 9 8 8 8 9 9 10 9 6 2 2 3 2 1 1 3 6 6 6 6 5 5 6 6 6 7 6 5 6 6 7 7 7 7 5 4 3 3 3 4 4 4 4 5 5 6 6 5 5 4 3 3 3
5 2 1 2 1 1 1 2 1 0 1 3 5 4 2 4 3 3 5 7 8 8 8 9 9 8 3 1 3 5 6 6 6 6 6 6 8 9 10 10 11 13 13 12 11 9 9 9 9 8 8 10 9 5 3 3 3 2 1 2 4 6 6 6 4 4 5 4 4 5 6 5 5 5 6 6 7 6 4 3 3 2 3 3 4 4 4 5 5 5 6 6 6 4 3 3 3
3 4 3 3 2 1 1 1 1 2 1 3 5 4 1 2 4 4 5 5 5 5 7 9 10 10 8 4 2 4 5 6 6 6 6 6 8 9 9 9 10 12 12 12 12 11 10 9 8 8 8 9 9 6 5 4 4 3 1 2 3 5 5 5 4 4 4 3 2 3 5 4 3 4 5 5 6 4 2 2 1 1 2 2 3 3 3 4 4 4 5 5 5 5 4 3 3
4 5 2 2 2 2 2 1 2 2 3 4 5 2 2 1 5 4 4 5 4 5 6 8 9 11 9 7 5 4 4 4 5 5 6 7 9 10 10 9 9 10 12 12 13 13 12 11 10 9 9 10 9 7 6 5 5 4 2 3 3 4 5 4 3 2 2 2 1 1 3 3 3 4 4 4 5 4 2 1 1 1 1 2 2 2 2 2 2 3 5 5 4 4 3 2 2
5 4 2 3 2 1 2 1 1 1 4 4 4 2 1 3 6 4 5 6 6 6 6 7 9 10 9 7 6 5 4 4 4 4 5 7 8 9 10 10 10 10 11 12 12 12 13 14 13 11 11 10 9 8 8 7 6 5 4 4 5 4 4 4 1 1 1 0 0 1 1 2 2 3 3 3 4 4 2 2 1 0 1 2 2 1 1 2 2 2 4 5 4 4 2 3 3
2 2 2 3 2 1 2 2 1 2 4 4 2 1 0 4 5 5 5 6 6 6 5 6 7 8 8 7 7 6 5 5 4 4 5 6 7 8 9 10 10 10 10 11 11 12 12 14 14 13 12 11 11 10 10 9 7 6 6 6 6 5 5 4 2 2 2 1 1 2 1 1 1 2 3 4 4 3 2 2 1 1 1 1 1 1 1 2 2 2 3 4 5 4 3 3 3
2 3 4 3 3 3 3 2 3 3 2 4 2 1 2 3 3 5 5 5 6 6 5 5 5 6 7 7 6 5 5 4 4 4 4 5 6 7 8 10 10 10 11 11 12 12 12 13 14 13 12 12 12 12 11 10 9 8 8 9 8 7 5 4 3 4 4 2 2 3 2 2 2 2 4 5 4 2 1 1 1 1 0 1 0 1 1 2 3 2 2 3 4 4 3 3 2
2 1 3 2 4 4 2 3 4 4 1 3 2 1 3 3 3 4 4 5 6 5 5 6 6 6 6 6 6 5 4 4 3 4 4 4 5 7 8 9 10 10 11 12 12 12 12 13 13 13 13 13 13 13 12 11 11 10 10 10 9 8 7 5 5 5 4 3 3 3 3 3 2 3 4 5 3 1 1 1 1 0 1 1 1 1 1 2 3 2 1 2 3 2 3 3 2
1 2 1 4 4 3 0 2 1 3 2 2 1 0 3 4 4 5 3 3 4 4 5 6 7 6 6 5 5 4 4 3 3 3 3 4 4 5 7 8 10 11 11 12 12 13 13 13 13 13 13 14 14 14 13 12 12 12 12 11 10 9 8 7 6 5 5 4 3 3 3 3 3 3 4 4 2 1 1 1 1 0 1 1 1 1 1 2 2 2 1 1 1 1 2 2 2
3 1 4 3 1 1 1 1 1 2 1 3 1 1 1 2 3 4 4 4 3 3 4 6 6 6 6 4 3 5 4 4 3 3 2 3 3 4 5 7 9 11 12 12 12 12 13 13 14 14 14 14 14 14 14 13 13 13 12 12 10 9 8 8 8 6 5 5 4 4 3 3 4 4 4 4 1 1 2 1 1 0 1 0 0 0 2 2 2 2 1 1 2 1 2 1 2
5 5 5 2 2 1 1 2 2 2 2 1 1 0 1 2 3 3 5 6 5 5 5 6 7 8 7 4 3 4 3 3 3 3 2 2 3 3 4 5 7 9 11 12 12 12 13 14 14 15 14 14 14 14 14 13 13 13 13 12 10 9 8 8 8 7 5 5 4 4 4 4 4 3 4 3 1 2 2 2 2 1 1 1 1 1 2 3 2 1 0 1 2 2 2 1 1
3 4 4 1 2 2 2 2 2 3 2 1 0 1 1 4 4 3 6 8 7 7 6 6 8 9 8 8 7 5 3 2 2 2 2 2 3 2 2 2 4 6 7 9 10 12 13 14 15 16 16 15 15 15 15 14 14 14 13 12 10 9 8 8 9 8 6 5 5 5 6 5 4 3 3 2 1 3 3 3 3 2 2 2 1 2 2 2 2 1 2 2 3 2 1 1 0
1 2 1 1 1 1 1 0 1 4 3 2 2 0 3 4 3 4 7 7 6 7 6 5 7 8 8 9 9 8 6 4 3 4 3 3 5 4 3 1 2 4 5 6 8 9 11 13 14 16 17 17 18 18 17 16 15 15 14 14 11 9 8 8 9 8 7 6 5 6 8 7 5 3 2 1 2 4 5 4 4 3 3 2 1 2 2 2 2 1 2 3 3 3 2 1 0
3 2 1 1 1 2 3 1 1 2 3 3 3 2 3 4 3 5 6 6 6 8 9 8 7 8 7 9 9 8 8 6 5 6 5 4 5 5 4 2 0 3 4 6 7 7 9 11 13 14 16 17 18 19 18 18 17 16 15 13 11 9 9 8 8 9 9 6 5 8 11 9 6 4 2 1 4 6 6 6 5 4 4 2 1 1 1 1 1 1 1 2 3 3 3 2 2
Wind_Direction
165 174 165 167 131 298 264 267 265 211 240 242 182 188 98 34 343 282 212 168 185 78 45 49 49 34 34 52 67 59 50 30 2 335 359 42 44 83 91 117 137 116 92 83 84 95 97 100 114 131 139 139 127 122 103 71 79 120 136 108 86 111 118 119 123 121 123 125 127 129 123 121 118 109 107 113 112 100 87 77 72 74 91 105 98 105 112 107 105 109 112 115 116 118 118 117 113
150 144 145 150 133 264 253 256 274 202 222 228 159 153 44 41 331 352 39 42 62 76 80 74 69 61 53 67 74 61 53 45 29 28 56 64 79 92 104 125 111 96 90 88 89 98 110 113 118 132 126 106 108 115 116 114 116 126 132 119 91 96 116 122 127 126 130 134 136 133 129 129 122 115 116 118 109 96 88 77 73 82 100 99 98 115 115 108 111 112 114 117 116 117 117 116 109
134 130 142 166 179 251 256 233 256 222 214 211 136 87 26 343 45 48 65 74 82 90 107 87 72 46 10 35 29 12 49 54 40 47 74 71 83 95 101 102 85 91 89 94 98 99 115 125 128 133 115 104 115 117 121 130 128 128 126 126 109 87 112 115 113 112 115 122 125 123 126 127 123 124 123 117 106 96 92 80 74 88 100 95 102 116 111 109 114 113 115 116 115 117 117 115 105
122 133 150 226 224 227 244 231 248 237 216 203 131 100 24 5 61 75 85 90 104 124 127 119 73 28 351 24 23 15 52 55 46 38 73 75 83 99 85 84 80 90 88 100 109 107 114 115 115 120 113 117 129 128 129 131 137 142 133 124 103 85 101 104 106 107 106 110 113 116 120 122 124 126 121 113 106 98 90 83 78 90 103 102 108 112 110 112 114 114 116 114 114 114 112 111 106
142 147 154 232 251 230 253 251 248 239 224 325 132 102 32 27 76 94 96 98 107 121 137 217 94 64 45 44 17 11 40 48 59 41 70 84 93 105 84 82 86 97 97 101 110 114 112 104 112 120 121 130 133 133 134 133 145 150 139 123 101 93 90 98 104 105 109 112 116 120 121 122 122 118 114 105 99 95 87 83 80 91 104 108 110 113 116 118 117 115 114 115 113 110 109 108 109
167 190 180 231 273 326 252 227 204 220 54 1 357 75 30 37 76 100 104 102 98 89 99 120 75 114 91 57 38 41 32 29 61 49 76 96 109 110 94 95 100 107 107 105 112 117 114 114 119 119 121 131 131 134 138 143 151 145 132 122 100 91 91 101 104 107 115 118 123 125 121 115 108 107 108 97 88 88 85 82 83 92 106 112 112 115 120 120 121 118 117 120 118 115 113 110 110
201 207 194 211 221 229 245 222 207 201 73 13 341 31 32 61 95 127 131 127 112 93 80 89 98 130 100 80 70 57 34 37 67 74 86 107 121 112 102 104 108 110 111 112 119 121 120 124 124 121 124 130 130 136 143 147 143 124 111 109 102 95 97 112 112 111 121 128 128 124 115 105 101 103 102 93 87 86 82 82 86 94 108 119 118 119 120 119 121 120 121 123 126 126 115 111 110
210 218 212 227 208 209 244 225 222 73 75 17 352 26 33 85 127 160 181 199 105 99 87 97 119 204 97 76 60 60 45 62 87 93 96 112 112 108 102 103 109 109 111 115 126 124 121 127 127 125 129 139 144 146 145 139 128 115 109 105 102 99 105 128 128 128 136 133 123 115 108 101 101 104 101 97 91 84 79 81 90 98 108 122 126 125 122 121 120 119 123 125 130 129 118 112 104
207 217 217 240 230 201 232 211 170 80 110 194 91 85 78 115 144 179 176 124 86 93 67 72 287 288 112 92 72 80 69 80 99 105 112 109 102 105 102 104 109 110 112 118 129 128 123 124 118 120 132 149 153 148 138 130 122 117 112 102 97 99 111 135 135 137 138 124 114 109 101 98 101 101 100 100 90 82 80 84 93 101 107 122 134 133 127 124 122 122 126 125 126 125 118 107 95
196 211 218 229 233 204 212 199 154 133 149 147 77 82 112 106 177 217 138 115 105 93 62 50 12 79 123 95 80 92 88 99 104 108 111 100 101 102 98 105 110 110 112 119 129 130 121 117 114 118 133 146 147 144 131 122 117 108 100 96 94 102 109 109 112 126 126 115 109 102 96 98 100 97 95 94 89 90 96 98 98 100 107 123 137 140 135 130 127 126 128 126 125 123 114 102 93
188 203 231 223 216 210 204 183 156 154 147 145 102 72 55 100 222 220 173 122 106 104 78 25 50 101 119 84 81 104 103 112 107 111 113 101 103 97 94 101 106 106 109 119 129 128 104 103 120 127 136 144 141 139 123 116 114 100 92 91 90 104 110 102 107 122 120 112 108 100 100 99 96 93 89 91 97 106 110 106 102 98 100 115 131 139 136 133 131 129 134 135 129 121 109 99 91
197 180 218 219 206 210 208 184 143 141 157 167 133 104 103 160 224 228 192 152 146 124 61 2 83 104 104 81 97 125 117 118 114 117 113 103 103 96 95 100 105 106 109 117 125 127 95 94 116 120 122 130 127 122 121 121 112 99 92 89 89 97 104 105 111 114 106 105 105 101 100 96 92 92 91 96 106 111 110 105 101 97 94 100 115 130 134 134 132 134 140 138 128 119 110 96 85
213 174 207 214 210 218 172 179 126 140 166 151 125 123 182 199 230 303 14 188 273 327 51 41 98 89 43 85 104 130 131 130 121 120 110 104 104 97 97 103 102 99 103 104 110 120 105 100 105 99 90 100 103 99 111 117 106 101 99 96 92 87 88 99 107 103 98 96 97 98 96 94 92 93 95 99 103 105 106 102 95 93 91 90 96 110 126 137 140 142 146 141 133 123 112 93 81
213 184 226 198 174 235 173 163 136 171 153 116 129 142 188 216 83 86 276 222 31 28 72 60 51 268 78 93 123 147 152 147 128 120 110 105 108 103 96 96 90 86 87 84 95 110 110 108 99 95 85 84 91 93 105 110 101 102 107 106 97 88 88 96 100 99 98 95 94 95 93 93 91 90 92 95 99 101 99 96 90 85 83 81 82 86 101 121 138 148 154 154 146 133 125 105 83
208 186 243 192 173 205 166 166 156 199 134 121 150 151 169 94 60 128 353 340 68 67 95 60 18 329 340 28 137 154 160 150 132 118 108 108 114 110 97 96 88 82 82 82 93 100 102 102 92 93 90 89 93 98 108 110 105 102 105 107 98 94 95 97 93 92 95 94 93 91 91 90 87 85 84 83 87 95 95 92 89 84 82 81 79 78 83 91 107 127 148 161 155 140 140 126 93
212 200 232 190 184 202 155 199 200 200 112 122 144 160 167 97 54 39 29 14 96 88 55 43 34 36 32 47 113 141 151 145 127 111 104 104 105 101 91 91 91 86 80 84 89 87 87 90 86 84 86 89 91 99 109 111 108 101 96 96 97 95 96 97 88 87 93 93 93 91 89 87 85 83 80 77 77 84 93 97 95 92 91 90 88 84 84 84 88 91 92 97 103 139 162 164 93
215 224 231 182 184 199 149 186 190 74 94 125 148 175 189 106 71 51 65 64 93 86 50 50 50 47 56 80 114 129 140 135 113 103 98 95 95 94 82 76 82 84 80 79 82 89 83 75 79 81 85 88 87 95 106 111 108 105 96 87 94 98 97 96 89 95 101 97 96 92 88 86 86 83 82 82 78 76 83 99 104 104 101 96 96 90 86 85 82 78 72 65 54 54 88 125 34
223 225 234 194 166 100 112 173 60 49 50 126 146 170 275 89 86 72 95 82 83 89 64 60 64 58 74 98 115 121 126 115 101 96 91 90 94 98 96 87 85 89 90 83 83 95 86 72 73 76 84 88 89 95 103 110 116 114 98 81 90 99 98 99 103 113 102 94 91 88 87 87 86 83 83 85 79 75 77 89 96 99 102 103 102 98 94 90 84 77 67 61 57 55 61 68 23
242 237 230 126 71 64 50 343 29 7 358 65 106 92 17 36 60 45 288 76 84 74 64 56 67 74 102 113 115 114 111 103 98 91 87 91 95 95 95 91 90 95 97 88 87 98 94 86 85 85 87 87 91 100 106 111 119 121 114 121 145 125 113 111 110 96 83 81 83 84 83 82 85 83 81 82 82 82 78 75 79 82 88 92 96 101 101 97 92 82 72 69 65 61 67 94 183
254 267 247 79 72 81 70 6 21 6 360 46 72 57 57 42 40 341 309 31 78 37 47 30 65 97 113 121 120 108 99 96 95 89 84 87 89 87 87 91 90 91 92 87 85 94 94 89 91 94 91 89 96 105 111 116 122 126 132 150 155 130 119 111 99 85 80 84 89 89 85 83 84 82 81 80 79 79 75 69 69 69 70 71 80 91 96 104 108 100 96 85 74 73 96 163 182
292 310 353 67 76 87 68 33 34 27 19 48 54 52 69 52 40 4 318 283 70 42 39 24 66 111 115 125 129 109 96 93 91 86 82 80 85 88 91 93 92 92 90 87 85 88 88 84 84 88 91 92 96 107 119 125 124 124 128 135 127 113 110 106 100 94 94 96 100 101 96 93 88 84 82 77 73 71 71 55 52 62 65 48 54 71 86 110 111 114 135 96 100 142 173 181 181
69 37 26 54 24 49 63 46 47 47 46 54 45 44 57 58 49 24 353 20 57 22 19 27 90 115 120 126 122 104 95 93 89 85 83 81 85 90 90 85 88 93 92 90 88 88 85 83 83 82 91 95 93 103 117 122 123 121 116 115 112 109 107 108 106 105 106 101 100 99 98 95 89 87 82 77 72 66 66 43 31 55 78 30 39 73 204 171 127 150 181 202 183 194 203 202 211
227 80 58 54 31 52 71 66 60 54 56 52 43 51 57 73 67 45 34 55 54 29 55 80 106 115 122 120 109 103 95 90 89 86 84 83 86 89 88 89 95 98 99 99 93 89 87 84 79 71 80 94 99 106 112 119 124 121 120 119 115 111 108 105 105 106 102 96 93 93 95 94 88 83 74 69 68 66 62 62 49 50 76 34 35 71 226 142 159 192 198 217 218 215 220 216 224
281 98 82 65 59 72 77 73 68 58 60 58 56 75 64 32 65 62 51 58 57 68 97 98 103 110 114 108 102 105 98 93 91 86 86 86 90 91 89 94 101 102 101 102 99 95 90 82 74 65 66 81 95 107 115 124 129 127 126 123 115 106 100 95 92 92 90 88 86 86 87 84 81 76 67 57 54 63 57 58 62 45 52 1 19 49 16 44 152 179 193 221 237 239 242 236 232
71 100 95 82 80 83 81 79 72 62 66 69 70 73 58 55 84 74 58 66 73 87 103 99 99 100 99 95 95 103 100 94 92 85 85 88 92 92 92 95 92 97 104 106 105 98 88 77 69 68 70 75 82 94 105 115 123 126 121 116 109 97 91 86 81 79 77 76 73 70 66 62 64 60 54 48 33 33 29 39 43 28 5 328 359 1 321 357 28 220 198 217 236 240 259 258 236
88 100 101 97 91 84 79 75 63 60 60 41 50 64 54 89 102 74 63 79 87 96 106 103 106 102 93 91 93 103 101 96 94 87 83 85 92 95 98 98 88 94 112 107 97 91 85 78 75 79 84 85 85 89 93 92 104 115 115 111 106 95 85 78 74 72 68 64 58 52 46 41 43 38 23 16 358 348 346 337 324 312 290 288 291 276 283 282 221 243 221 218 228 239 261 263 248
105 106 98 94 91 81 67 65 56 51 53 19 11 60 59 108 102 62 72 97 101 106 113 112 113 111 105 105 107 110 108 105 99 93 90 90 96 101 100 99 96 96 103 95 86 89 86 84 88 91 91 91 93 94 94 87 86 97 101 96 91 87 78 68 67 65 59 53 46 38 33 28 29 26 2 334 316 317 306 288 273 260 266 276 268 268 277 266 244 234 224 227 225 225 248 262 261
116 118 107 98 95 87 69 67 53 6 48 25 336 349 134 113 85 87 106 118 113 113 117 119 120 120 121 119 120 120 119 116 107 104 103 104 108 108 103 102 104 97 95 101 98 99 94 93 96 94 95 96 97 96 94 90 84 83 81 70 67 71 67 58 56 55 50 47 44 37 32 30 27 26 21 18 1 319 269 257 259 249 246 253 257 262 271 273 272 264 252 253 257 252 255 254 253
129 151 123 118 131 107 79 73 53 355 33 19 325 263 135 86 79 111 125 126 120 121 119 121 125 127 134 131 130 136 135 131 126 121 119 123 124 118 108 106 111 103 102 112 110 111 105 102 100 98 99 100 98 97 93 89 84 78 69 58 57 58 54 54 55 53 48 46 45 41 40 38 37 39 42 51 50 32 359 258 247 255 243 235 236 237 252 271 275 279 276 273 273 272 269 265 267
149 197 209 152 161 114 97 110 109 25 28 355 319 247 92 64 84 121 134 135 129 129 124 126 131 133 140 143 148 152 143 143 146 135 130 133 131 127 107 100 115 114 111 113 113 119 117 110 104 102 104 103 100 96 90 86 79 73 67 66 70 69 65 62 58 50 45 45 43 40 43 44 45 48 50 54 55 48 36 39 45 305 254 228 231 219 224 263 263 273 282 280 283 284 279 278 283
176 183 190 192 96 91 109 142 176 110 62 314 307 44 81 58 90 128 139 148 146 142 135 134 137 141 145 148 165 168 154 156 159 149 142 140 139 142 119 101 114 115 119 125 124 127 125 118 107 104 108 105 100 94 86 78 71 69 71 75 76 71 64 57 50 46 44 44 41 37 37 39 40 42 44 46 51 54 42 41 43 9 294 221 256 203 196 233 238 244 260 275 288 287 282 285 287
225 210 114 44 46 95 124 148 190 52 64 307 314 29 94 85 120 140 146 156 160 159 149 144 144 149 149 150 163 168 171 168 164 163 158 157 151 152 145 125 111 110 123 128 127 132 133 126 111 106 109 105 100 92 78 68 66 69 71 70 67 65 62 56 52 52 52 49 46 38 32 35 39 39 42 42 44 52 47 43 44 39 50 37 276 194 204 246 235 238 233 245 271 276 277 279 282
87 344 59 49 39 97 127 136 148 120 94 300 324 358 83 96 123 144 158 163 164 165 152 149 150 153 157 156 155 159 173 172 170 176 168 163 155 154 156 136 116 116 125 126 126 132 137 130 115 110 111 107 98 80 66 61 63 66 68 64 64 69 72 67 61 57 56 53 50 42 34 38 43 41 43 42 41 47 48 44 41 40 48 43 44 81 312 302 279 264 259 260 263 279 285 281 286
95 45 63 65 24 45 103 114 139 178 208 114 87 326 46 86 115 141 170 175 172 176 157 153 157 161 166 164 161 162 172 172 172 179 173 166 156 156 155 137 123 121 125 130 132 135 140 130 117 116 114 103 87 72 63 58 59 62 62 57 56 60 60 62 65 61 56 55 53 48 44 43 43 41 41 42 41 46 47 45 40 36 40 38 42 50 34 3 298 277 291 295 284 282 287 283 288
67 62 72 96 82 56 72 88 133 175 205 172 161 209 68 93 117 133 172 185 186 186 164 163 165 167 169 169 169 166 169 172 171 177 176 168 161 158 150 138 130 127 133 139 139 139 139 131 122 119 110 97 80 66 56 52 55 56 54 49 48 53 53 55 61 59 55 56 57 53 53 51 45 42 42 42 42 45 47 44 39 38 41 39 38 42 43 40 12 349 332 302 293 279 283 287 288
21 48 45 64 86 79 69 78 120 184 213 190 206 25 72 93 114 128 166 184 195 192 184 187 179 176 178 176 173 170 173 171 171 176 175 171 171 164 150 142 139 136 143 144 140 139 138 135 131 123 109 94 75 63 59 63 66 61 58 52 50 58 60 57 55 55 56 59 61 57 56 55 48 43 41 40 38 41 45 41 38 35 40 40 37 37 29 23 18 9 1 306 320 292 279 287 272
327 8 82 61 71 80 77 85 121 219 251 101 43 338 27 66 111 130 159 177 194 199 197 204 198 190 189 184 174 170 173 169 170 174 174 177 178 170 158 151 147 142 145 146 145 143 142 143 138 128 112 92 82 85 94 103 102 82 71 60 55 61 58 51 49 52 57 62 66 63 59 55 49 43 38 35 34 36 38 37 35 32 34 34 30 29 21 16 16 2 354 357 353 330 290 289 277
280 283 79 94 76 80 82 82 125 206 260 82 60 295 248 83 107 132 162 183 191 199 196 198 202 197 190 190 178 166 164 162 167 170 173 179 178 172 169 166 159 148 152 157 154 150 147 146 141 132 115 93 86 92 91 87 88 82 77 77 79 77 70 63 55 54 56 60 68 72 65 58 50 45 39 35 32 31 29 26 30 31 26 24 23 21 16 10 8 4 5 6 354 332 306 295 288
259 325 13 70 71 97 106 98 137 187 265 50 34 297 74 76 82 134 174 197 188 190 199 196 196 197 191 189 180 169 167 169 175 173 174 181 177 173 175 176 171 156 162 170 164 155 147 144 142 135 116 100 87 81 75 66 60 57 58 67 75 68 60 62 60 58 56 56 60 65 63 56 46 42 39 37 32 26 25 21 21 27 24 22 21 19 16 10 5 4 2 359 8 7 334 304 275
281 20 41 75 65 54 87 104 145 173 275 341 319 293 80 87 110 123 159 211 221 212 218 224 217 215 206 195 187 178 178 180 183 179 179 183 182 182 182 181 180 169 164 179 179 162 148 147 143 131 117 109 102 86 75 63 51 48 48 56 66 62 53 56 59 58 58 56 55 56 55 49 42 40 39 35 32 26 23 20 17 20 25 24 21 19 16 15 9 9 5 355 6 28 6 329 301
101 8 11 58 58 27 45 100 156 178 208 289 297 283 85 81 95 97 112 181 230 233 231 232 228 229 223 214 209 198 191 187 186 186 185 186 188 192 193 189 189 184 171 176 188 174 153 147 140 125 112 105 103 93 77 65 55 47 43 50 59 59 55 60 63 57 58 57 54 51 51 48 41 40 42 34 28 26 22 24 20 15 21 25 26 24 17 19 16 12 9 0 1 7 3 351 335
125 76 19 32 41 46 65 116 197 205 135 17 318 341 90 76 72 73 89 133 167 199 228 239 230 228 229 227 221 208 200 193 189 188 188 193 195 197 200 198 197 193 184 179 186 182 165 160 159 145 121 103 94 95 85 70 62 49 44 50 63 69 69 72 72 67 63 56 50 48 45 44 40 36 38 33 24 15 10 18 17 16 20 22 30 28 21 23 22 17 16 12 5 358 3 3 349
114 73 33 26 353 49 93 92 300 357 57 29 334 351 87 88 71 67 77 83 88 114 187 250 237 228 228 230 226 212 202 196 193 191 190 196 201 199 199 201 201 201 196 188 188 187 183 181 187 194 178 135 90 91 105 98 88 64 49 55 70 86 89 64 58 66 65 52 48 47 35 32 33 33 31 29 22 13 10 13 11 23 23 19 23 22 24 30 23 20 26 22 14 9 13 9 357
76 57 351 282 302 319 62 332 15 33 65 102 17 2 64 78 72 82 95 83 78 75 66 52 331 242 229 227 224 218 209 202 199 198 195 197 204 206 201 199 199 204 206 198 194 193 194 196 196 207 212 204 172 91 131 149 135 100 55 49 57 69 68 47 46 53 56 53 48 46 40 25 21 28 28 26 22 16 19 19 9 21 23 19 27 23 21 28 23 20 24 28 28 25 19 11 3
72 62 338 8 326 329 309 287 57 50 253 106 53 350 10 80 87 105 87 68 67 61 57 53 39 20 243 229 220 218 217 215 211 208 202 195 206 214 206 199 193 200 210 206 200 201 205 208 205 209 214 218 234 249 173 182 175 160 50 38 44 51 49 43 41 39 44 52 46 38 34 17 7 16 17 20 26 20 20 22 9 8 8 14 24 24 19 20 23 24 23 29 32 33 28 19 10
82 125 183 140 199 222 254 300 37 174 269 65 41 351 8 87 88 73 58 50 47 49 53 50 45 47 47 196 206 208 210 217 219 217 209 196 210 220 211 202 192 195 209 211 206 209 214 218 217 215 214 219 235 252 240 219 207 213 280 11 24 33 38 40 34 25 33 51 54 32 19 8 7 8 3 9 22 19 13 20 10 351 349 356 2 9 15 13 16 20 21 27 29 33 36 27 22
134 204 202 166 165 166 223 341 302 249 92 55 31 8 324 100 78 51 49 41 26 33 49 49 48 53 57 70 132 183 196 208 216 217 214 204 215 224 217 209 199 197 204 209 211 213 220 230 230 227 223 223 234 250 257 247 231 229 256 313 348 13 22 28 26 18 28 46 65 28 8 4 1 1 3 2 4 11 21 21 11 347 333 328 339 357 10 8 7 8 12 19 23 31 34 35 36
201 235 245 210 192 189 206 169 244 271 70 44 33 46 265 61 69 51 59 66 44 36 44 47 47 51 57 66 87 118 162 189 204 211 211 212 221 228 225 216 208 205 204 206 212 215 219 228 232 232 232 232 235 247 261 263 251 240 249 280 304 343 358 11 20 3 23 52 105 10 2 7 0 352 3 358 348 2 53 78 27 2 322 294 301 347 1 1 5 3 3 8 13 21 24 41 55
226 244 254 259 240 206 276 327 315 15 61 43 42 78 251 71 69 50 64 72 61 52 47 50 50 51 58 63 76 97 124 152 180 200 209 216 223 228 228 220 213 212 210 208 213 215 218 224 228 231 236 240 242 248 261 271 268 251 246 259 277 302 331 357 1 280 346 71 226 346 6 3 347 342 356 355 346 4 66 103 123 177 272 265 255 305 350 356 22 8 355 2 4 2 6 30 48
248 280 292 288 313 352 308 315 20 51 71 72 73 254 247 98 80 50 64 75 72 76 68 64 63 60 62 64 71 88 107 128 154 180 203 219 222 225 227 222 217 217 216 214 216 218 219 222 226 230 236 244 249 254 261 270 274 264 251 249 259 272 299 336 338 292 315 2 334 338 2 332 331 350 351 346 356 23 84 118 141 189 226 223 231 248 336 338 8 6 347 352 354 357 14 29 32
23 331 300 309 358 348 321 334 20 33 78 103 126 263 12 69 62 48 73 92 87 90 90 90 89 79 74 72 72 80 97 118 138 161 187 208 215 220 223 220 217 217 217 216 218 220 220 221 225 230 236 244 252 256 261 267 270 267 258 251 252 257 270 297 314 314 318 326 326 327 347 1 349 346 339 343 7 53 117 128 131 190 185 132 206 273 336 334 339 345 335 340 349 3 36 49 40
81 279 274 16 21 355 7 26 11 344 324 100 93 6 56 74 94 85 100 113 102 103 111 103 90 86 83 77 79 84 90 108 131 157 176 191 201 210 218 220 219 219 219 218 218 220 221 223 226 230 235 244 252 257 261 264 265 265 264 258 254 253 257 266 280 302 310 301 301 314 338 358 350 345 345 351 19 86 118 116 146 140 92 98 44 14 5 333 330 329 317 332 347 17 52 63 67
142 213 73 55 7 325 44 95 64 287 283 97 66 3 112 132 132 109 107 103 90 92 94 81 73 78 73 65 80 90 88 100 120 142 166 183 192 200 211 218 221 223 225 225 225 225 225 226 228 230 234 240 249 255 260 263 264 266 267 263 259 255 255 256 261 278 293 290 289 301 321 342 352 2 355 354 22 146 187 169 188 74 91 92 50 43 353 324 325 318 293 300 315 60 70 75 92
298 127 97 99 290 274 266 281 196 253 319 85 71 326 111 148 124 100 83 58 41 36 53 54 50 50 46 49 82 92 90 94 100 116 144 165 185 200 209 215 220 225 228 230 232 232 232 230 229 231 233 238 245 252 257 261 263 265 266 264 261 256 251 253 254 260 276 279 279 292 311 331 348 6 1 353 11 188 217 202 199 188 112 53 68 60 325 323 321 311 288 264 232 145 100 115 124
11 84 117 218 269 164 240 309 334 315 339 66 133 236 7 48 74 74 59 49 37 29 31 30 32 28 20 25 62 85 96 95 97 113 121 131 163 190 208 215 221 227 230 233 236 238 238 237 236 235 237 239 243 247 251 254 257 260 261 259 259 257 252 251 250 251 261 267 265 283 303 314 331 355 2 350 318 206 224 216 212 225 231 273 274 306 330 326 310 292 226 232 218 173 121 123 129
72 124 153 269 337 356 334 340 336 317 311 328 348 151 81 53 62 59 51 47 33 29 26 23 35 30 19 29 42 52 67 85 102 115 119 118 124 142 181 215 224 235 241 241 244 247 246 245 243 241 241 242 243 245 248 251 254 257 258 255 255 256 255 254 253 251 254 250 244 270 292 297 308 332 351 338 244 210 220 222 217 222 234 250 284 321 341 336 315 269 194 204 212 196 158 106 68
210 202 176 92 97 324 317 170 315 316 310 329 324 308 81 62 48 46 48 40 22 25 16 10 34 33 25 38 45 45 50 61 88 98 99 97 94 99 93 85 218 238 251 255 256 258 257 257 255 251 248 246 246 247 248 249 252 255 254 252 253 254 255 258 256 251 249 245 246 272 281 280 283 297 323 311 231 210 213 221 220 218 227 232 280 318 342 359 324 269 211 205 208 210 214 214 250
339 323 334 341 306 277 265 211 128 311 321 351 317 315 70 74 43 40 39 17 5 11 1 353 22 33 31 45 49 45 48 54 75 90 95 94 92 95 89 76 176 241 250 254 259 262 262 264 263 259 256 253 250 250 252 251 251 252 250 248 249 248 244 247 247 244 243 242 252 264 265 263 265 272 290 256 228 215 208 214 218 216 219 213 220 288 344 24 299 271 233 218 216 216 221 226 232